RYR478C EDDM-EDDF

Flight info

Callsign RYR478C
Flight time 0h 37m
Altitude 24000
Route GIVMI1N/26R GIVMI Y101 ERNAS T161 DEBHI DEBHI1B
Aircraft B738/M-SDE2E3FGHIRWXY/LB1

Departure

Time 2026-05-04 19:21
Airport Munich Airport (EDDM)

Arrival

Time 2026-05-04 19:58
Airport Frankfurt Main Airport (EDDF)
Time Latitude Longitude Altitude Speed Heading
2026-05-04 18:54 48.34900 11.78391 1484 ft 0 kts 84°
2026-05-04 19:06 48.34899 11.78387 1484 ft 2 kts 84°
2026-05-04 19:06 48.34898 11.78362 1472 ft 2 kts 84°
2026-05-04 19:06 48.34896 11.78338 1473 ft 2 kts 88°
2026-05-04 19:07 48.34897 11.78314 1472 ft 2 kts 124°
2026-05-04 19:07 48.34899 11.78270 1480 ft 0 kts 356°
2026-05-04 19:07 48.34898 11.78270 1479 ft 0 kts
2026-05-04 19:09 48.34920 11.78270 1471 ft 7 kts 359°
2026-05-04 19:10 48.34978 11.78261 1474 ft 9 kts 353°
2026-05-04 19:10 48.35037 11.78251 1479 ft 8 kts 353°
2026-05-04 19:10 48.35094 11.78241 1473 ft 8 kts 354°
2026-05-04 19:10 48.35150 11.78231 1478 ft 8 kts 353°
2026-05-04 19:11 48.35208 11.78221 1474 ft 9 kts 353°
2026-05-04 19:11 48.35278 11.78210 1484 ft 8 kts 354°
2026-05-04 19:11 48.35326 11.78165 1481 ft 9 kts 288°
2026-05-04 19:11 48.35326 11.78075 1484 ft 9 kts 264°
2026-05-04 19:12 48.35320 11.77988 1484 ft 8 kts 264°
2026-05-04 19:12 48.35307 11.77822 1484 ft 8 kts 265°
2026-05-04 19:12 48.35337 11.77763 1480 ft 7 kts 340°
2026-05-04 19:13 48.35387 11.77758 1484 ft 7 kts 13°
2026-05-04 19:13 48.35442 11.77767 1484 ft 11 kts
2026-05-04 19:13 48.35538 11.77750 1481 ft 17 kts 353°
2026-05-04 19:13 48.35673 11.77727 1475 ft 17 kts 353°
2026-05-04 19:14 48.35782 11.77708 1477 ft 10 kts 353°
2026-05-04 19:14 48.35851 11.77696 1485 ft 8 kts 353°
2026-05-04 19:14 48.35903 11.77687 1480 ft 8 kts 353°
2026-05-04 19:14 48.35978 11.77673 1484 ft 12 kts 353°
2026-05-04 19:15 48.36060 11.77678 1484 ft 14 kts 38°
2026-05-04 19:15 48.36088 11.77831 1476 ft 18 kts 83°
2026-05-04 19:15 48.36105 11.78033 1475 ft 22 kts 83°
2026-05-04 19:15 48.36122 11.78276 1472 ft 25 kts 83°
2026-05-04 19:16 48.36142 11.78538 1477 ft 24 kts 84°
2026-05-04 19:16 48.36160 11.78782 1484 ft 23 kts 83°
2026-05-04 19:16 48.36179 11.79025 1477 ft 25 kts 84°
2026-05-04 19:16 48.36200 11.79295 1484 ft 27 kts 83°
2026-05-04 19:17 48.36223 11.79588 1471 ft 28 kts 84°
2026-05-04 19:17 48.36245 11.79875 1484 ft 27 kts 83°
2026-05-04 19:17 48.36265 11.80144 1472 ft 25 kts 83°
2026-05-04 19:17 48.36285 11.80394 1481 ft 25 kts 83°
2026-05-04 19:18 48.36306 11.80682 1479 ft 30 kts 83°
2026-05-04 19:18 48.36331 11.80995 1484 ft 29 kts 83°
2026-05-04 19:18 48.36354 11.81293 1475 ft 28 kts 83°
2026-05-04 19:18 48.36376 11.81573 1476 ft 26 kts 83°
2026-05-04 19:19 48.36397 11.81845 1479 ft 18 kts 84°
2026-05-04 19:19 48.36440 11.81994 1481 ft 17 kts 14°
2026-05-04 19:19 48.36578 11.81981 1475 ft 19 kts 353°
2026-05-04 19:19 48.36663 11.81903 1476 ft 17 kts 289°
2026-05-04 19:20 48.36651 11.81622 1478 ft 52 kts 263°
2026-05-04 19:20 48.36585 11.80769 1484 ft 112 kts 263°
2026-05-04 19:20 48.36476 11.79335 1486 ft 161 kts 264°
2026-05-04 19:20 48.36362 11.77603 1967 ft 168 kts 266°
2026-05-04 19:21 48.36232 11.75786 2519 ft 181 kts 264°
2026-05-04 19:21 48.36083 11.73874 3220 ft 183 kts 263°
2026-05-04 19:21 48.35928 11.71863 3693 ft 209 kts 262°
2026-05-04 19:21 48.35753 11.69542 4050 ft 235 kts 265°
2026-05-04 19:22 48.36011 11.67105 4613 ft 244 kts 293°
2026-05-04 19:22 48.36837 11.64855 5069 ft 253 kts 301°
2026-05-04 19:22 48.37802 11.62598 5718 ft 257 kts 302°
2026-05-04 19:22 48.38765 11.60355 6450 ft 255 kts 301°
2026-05-04 19:23 48.39710 11.58098 6887 ft 257 kts 300°
2026-05-04 19:23 48.40659 11.55794 6947 ft 256 kts 300°
2026-05-04 19:23 48.41591 11.53520 7004 ft 266 kts 299°
2026-05-04 19:23 48.42594 11.51054 6978 ft 281 kts 300°
2026-05-04 19:24 48.43622 11.48525 7009 ft 281 kts 300°
2026-05-04 19:24 48.44645 11.45998 7051 ft 282 kts 300°
2026-05-04 19:24 48.45890 11.43709 7527 ft 290 kts 322°
2026-05-04 19:24 48.47725 11.42556 8450 ft 292 kts 346°
2026-05-04 19:25 48.49738 11.41989 9292 ft 295 kts 347°
2026-05-04 19:25 48.51770 11.41463 9634 ft 295 kts 347°
2026-05-04 19:25 48.53810 11.40934 9923 ft 301 kts 347°
2026-05-04 19:25 48.55909 11.40374 9934 ft 308 kts 347°
2026-05-04 19:26 48.58026 11.39804 10029 ft 314 kts 347°
2026-05-04 19:26 48.60263 11.39190 10216 ft 338 kts 347°
2026-05-04 19:26 48.62657 11.38530 10406 ft 362 kts 347°
2026-05-04 19:26 48.65202 11.37833 10730 ft 378 kts 347°
2026-05-04 19:27 48.67781 11.37123 11368 ft 383 kts 347°
2026-05-04 19:27 48.70380 11.36166 12104 ft 384 kts 335°
2026-05-04 19:27 48.72657 11.34089 12826 ft 383 kts 322°
2026-05-04 19:27 48.74851 11.31752 13495 ft 388 kts 323°
2026-05-04 19:28 48.77092 11.29420 14112 ft 393 kts 323°
2026-05-04 19:28 48.79374 11.27098 14799 ft 396 kts 324°
2026-05-04 19:28 48.81673 11.24773 15536 ft 397 kts 324°
2026-05-04 19:28 48.83977 11.22422 16181 ft 400 kts 322°
2026-05-04 19:29 48.86105 11.19775 16782 ft 401 kts 316°
2026-05-04 19:29 48.88174 11.16884 17471 ft 404 kts 314°
2026-05-04 19:29 48.90233 11.13952 18163 ft 407 kts 315°
2026-05-04 19:29 48.92316 11.11016 18785 ft 410 kts 315°
2026-05-04 19:30 48.94427 11.08068 19295 ft 415 kts 315°
2026-05-04 19:30 48.96561 11.05090 19789 ft 418 kts 315°
2026-05-04 19:30 48.98707 11.02085 20281 ft 421 kts 315°
2026-05-04 19:30 49.00872 10.99048 20775 ft 424 kts 315°
2026-05-04 19:31 49.03047 10.95994 21268 ft 427 kts 315°
2026-05-04 19:31 49.05244 10.92910 21734 ft 430 kts 315°
2026-05-04 19:31 49.07449 10.89808 22188 ft 433 kts 315°
2026-05-04 19:31 49.09672 10.86680 22640 ft 436 kts 314°
2026-05-04 19:32 49.11877 10.83559 23075 ft 439 kts 314°
2026-05-04 19:32 49.14120 10.80379 23410 ft 444 kts 314°
2026-05-04 19:32 49.16401 10.77147 23336 ft 448 kts 314°
2026-05-04 19:32 49.18680 10.73916 23434 ft 447 kts 314°
2026-05-04 19:33 49.20818 10.70458 23834 ft 445 kts 307°
2026-05-04 19:33 49.22793 10.66799 23977 ft 449 kts 306°
2026-05-04 19:33 49.24760 10.63059 23991 ft 451 kts 306°
2026-05-04 19:33 49.26724 10.59305 23997 ft 448 kts 306°
2026-05-04 19:34 49.28652 10.55636 23995 ft 448 kts 306°
2026-05-04 19:34 49.30612 10.51920 23897 ft 443 kts 306°
2026-05-04 19:34 49.32525 10.48304 23526 ft 433 kts 306°
2026-05-04 19:34 49.34416 10.44730 22923 ft 429 kts 306°
2026-05-04 19:35 49.36291 10.41178 22249 ft 426 kts 306°
2026-05-04 19:35 49.38150 10.37652 21642 ft 423 kts 306°
2026-05-04 19:35 49.39991 10.34157 21042 ft 419 kts 306°
2026-05-04 19:35 49.41818 10.30682 20461 ft 416 kts 306°
2026-05-04 19:36 49.43601 10.27287 19914 ft 412 kts 306°
2026-05-04 19:36 49.45400 10.23856 19363 ft 409 kts 306°
2026-05-04 19:36 49.47176 10.20463 18811 ft 406 kts 306°
2026-05-04 19:36 49.48942 10.17089 18475 ft 397 kts 306°
2026-05-04 19:37 49.50628 10.13871 18379 ft 377 kts 306°
2026-05-04 19:37 49.52231 10.10802 18271 ft 359 kts 306°
2026-05-04 19:37 49.53741 10.07858 18131 ft 341 kts 303°
2026-05-04 19:37 49.55060 10.04978 18015 ft 326 kts 301°
2026-05-04 19:38 49.56329 10.02107 17631 ft 321 kts 301°
2026-05-04 19:38 49.57595 9.99256 17221 ft 323 kts 302°
2026-05-04 19:38 49.58875 9.96403 16918 ft 321 kts 302°
2026-05-04 19:38 49.60140 9.93582 16627 ft 319 kts 302°
2026-05-04 19:39 49.60974 9.91720 16435 ft 318 kts 302°
2026-05-04 19:39 49.62651 9.87972 16068 ft 317 kts 302°
2026-05-04 19:39 49.63886 9.85210 15791 ft 315 kts 302°
2026-05-04 19:39 49.65131 9.82433 15502 ft 314 kts 302°
2026-05-04 19:40 49.66369 9.79665 15230 ft 313 kts 302°
2026-05-04 19:40 49.67599 9.76912 14938 ft 311 kts 302°
2026-05-04 19:40 49.68827 9.74162 14642 ft 310 kts 302°
2026-05-04 19:40 49.70050 9.71419 14374 ft 308 kts 301°
2026-05-04 19:41 49.71265 9.68693 14091 ft 307 kts 301°
2026-05-04 19:41 49.72453 9.66021 13791 ft 305 kts 301°
2026-05-04 19:41 49.73653 9.63317 13460 ft 304 kts 301°
2026-05-04 19:41 49.74852 9.60618 13146 ft 303 kts 301°
2026-05-04 19:42 49.76039 9.57936 12823 ft 301 kts 301°
2026-05-04 19:42 49.77215 9.55274 12551 ft 299 kts 301°
2026-05-04 19:42 49.78391 9.52608 12235 ft 298 kts 301°
2026-05-04 19:42 49.79560 9.49960 11908 ft 297 kts 301°
2026-05-04 19:43 49.80725 9.47326 11616 ft 296 kts 301°
2026-05-04 19:43 49.81886 9.44700 11321 ft 294 kts 301°
2026-05-04 19:43 49.83023 9.42122 11103 ft 290 kts 301°
2026-05-04 19:43 49.84134 9.39602 11009 ft 277 kts 301°
2026-05-04 19:44 49.85194 9.37194 10920 ft 264 kts 301°
2026-05-04 19:44 49.86144 9.34824 10692 ft 255 kts 291°
2026-05-04 19:44 49.86763 9.32277 10400 ft 252 kts 284°
2026-05-04 19:44 49.87264 9.29672 10166 ft 251 kts 282°
2026-05-04 19:45 49.87742 9.27077 9942 ft 249 kts 282°
2026-05-04 19:45 49.88220 9.24493 9681 ft 249 kts 282°
2026-05-04 19:45 49.88703 9.21912 9401 ft 249 kts 283°
2026-05-04 19:45 49.89195 9.19313 9070 ft 251 kts 283°
2026-05-04 19:46 49.89684 9.16748 8817 ft 251 kts 283°
2026-05-04 19:46 49.90181 9.14150 8579 ft 250 kts 283°
2026-05-04 19:46 49.90669 9.11593 8347 ft 246 kts 283°
2026-05-04 19:46 49.91152 9.09059 8055 ft 244 kts 283°
2026-05-04 19:47 49.91629 9.06538 7726 ft 243 kts 283°
2026-05-04 19:47 49.92108 9.04013 7399 ft 243 kts 283°
2026-05-04 19:47 49.92582 9.01501 7102 ft 242 kts 283°
2026-05-04 19:47 49.93054 8.98990 6792 ft 241 kts 283°
2026-05-04 19:48 49.93526 8.96487 6456 ft 241 kts 283°
2026-05-04 19:48 49.94024 8.93998 6119 ft 241 kts 291°
2026-05-04 19:48 49.95055 8.92035 6033 ft 242 kts 326°
2026-05-04 19:48 49.96667 8.91258 6010 ft 248 kts 358°
2026-05-04 19:49 49.98414 8.91325 6018 ft 254 kts
2026-05-04 19:49 50.00171 8.91464 6013 ft 251 kts
2026-05-04 19:49 50.01342 8.91647 5962 ft 250 kts 14°
2026-05-04 19:49 50.02843 8.92859 5801 ft 246 kts 44°
2026-05-04 19:50 50.03763 8.95059 5477 ft 243 kts 69°
2026-05-04 19:50 50.04361 8.97485 5205 ft 240 kts 71°
2026-05-04 19:50 50.04927 8.99946 4914 ft 239 kts 71°
2026-05-04 19:50 50.05480 9.02366 4634 ft 237 kts 71°
2026-05-04 19:51 50.06087 9.04740 4282 ft 236 kts 59°
2026-05-04 19:51 50.07248 9.06493 4048 ft 233 kts 26°
2026-05-04 19:51 50.08828 9.07025 4020 ft 238 kts 355°
2026-05-04 19:51 50.10372 9.06230 4007 ft 235 kts 324°
2026-05-04 19:52 50.11425 9.04330 4012 ft 234 kts 294°
2026-05-04 19:52 50.11930 9.01909 4017 ft 237 kts 284°
2026-05-04 19:52 50.12338 8.99452 4012 ft 237 kts 284°
2026-05-04 19:52 50.12742 8.96955 4012 ft 236 kts 283°
2026-05-04 19:53 50.13140 8.94476 3993 ft 232 kts 283°
2026-05-04 19:53 50.13402 8.92072 3975 ft 218 kts 265°
2026-05-04 19:53 50.12931 8.89987 3975 ft 197 kts 231°
2026-05-04 19:53 50.12032 8.88479 4016 ft 187 kts 224°
2026-05-04 19:54 50.11120 8.87083 4027 ft 181 kts 226°
2026-05-04 19:54 50.10463 8.85429 3952 ft 180 kts 246°
2026-05-04 19:54 50.10001 8.83601 3714 ft 185 kts 249°
2026-05-04 19:54 50.09555 8.81732 3467 ft 183 kts 250°
2026-05-04 19:55 50.09109 8.79871 3226 ft 181 kts 250°
2026-05-04 19:55 50.08670 8.78048 2978 ft 178 kts 250°
2026-05-04 19:55 50.08235 8.76249 2749 ft 176 kts 250°
2026-05-04 19:55 50.07807 8.74473 2526 ft 175 kts 250°
2026-05-04 19:56 50.07376 8.72685 2286 ft 178 kts 250°
2026-05-04 19:56 50.06942 8.70882 2048 ft 177 kts 251°
2026-05-04 19:56 50.06516 8.69111 1831 ft 168 kts 251°
2026-05-04 19:56 50.06122 8.67472 1587 ft 160 kts 252°
2026-05-04 19:57 50.05747 8.65885 1381 ft 154 kts 251°
2026-05-04 19:57 50.05374 8.64328 1173 ft 152 kts 251°
2026-05-04 19:57 50.05001 8.62798 962 ft 149 kts 250°
2026-05-04 19:57 50.04633 8.61272 773 ft 151 kts 251°
2026-05-04 19:58 50.04259 8.59709 563 ft 159 kts 250°
2026-05-04 19:58 50.03874 8.58117 357 ft 151 kts 250°
2026-05-04 19:58 50.03551 8.56751 345 ft 106 kts 249°
2026-05-04 19:58 50.03373 8.55994 348 ft 45 kts 250°
2026-05-04 19:59 50.03312 8.55736 352 ft 25 kts 252°
2026-05-04 19:59 50.03386 8.55563 347 ft 20 kts 341°
2026-05-04 19:59 50.03407 8.55552 345 ft 0 kts 340°
2026-05-04 20:00 50.03418 8.55546 348 ft 7 kts 340°
2026-05-04 20:00 50.03493 8.55528 345 ft 10 kts 30°
2026-05-04 20:00 50.03539 8.55667 352 ft 19 kts 69°
2026-05-04 20:00 50.03593 8.55895 355 ft 27 kts 70°
2026-05-04 20:01 50.03667 8.56205 351 ft 34 kts 69°
2026-05-04 20:01 50.03750 8.56549 353 ft 27 kts 69°
2026-05-04 20:01 50.03813 8.56812 353 ft 25 kts 70°
2026-05-04 20:01 50.03872 8.57058 351 ft 23 kts 69°
2026-05-04 20:02 50.03927 8.57290 349 ft 23 kts 69°
2026-05-04 20:02 50.03981 8.57515 349 ft 22 kts 69°
2026-05-04 20:02 50.04033 8.57732 350 ft 21 kts 69°
2026-05-04 20:02 50.04084 8.57943 352 ft 21 kts 69°
2026-05-04 20:03 50.04134 8.58151 347 ft 20 kts 70°
2026-05-04 20:03 50.04187 8.58376 352 ft 26 kts 70°
2026-05-04 20:03 50.04261 8.58689 350 ft 36 kts 70°
2026-05-04 20:03 50.04346 8.59038 348 ft 33 kts 70°
2026-05-04 20:04 50.04399 8.59259 351 ft 14 kts 69°
2026-05-04 20:04 50.04430 8.59388 352 ft 11 kts 70°
2026-05-04 20:04 50.04474 8.59465 350 ft 7 kts 17°
2026-05-04 20:04 50.04533 8.59471 345 ft 10 kts 360°
2026-05-04 20:05 50.04603 8.59465 345 ft 10 kts 354°
2026-05-04 20:05 50.04647 8.59457 351 ft 0 kts 351°
2026-05-04 20:06 50.04670 8.59451 345 ft 5 kts 348°
2026-05-04 20:06 50.04708 8.59436 347 ft 6 kts 344°
2026-05-04 20:06 50.04753 8.59414 350 ft 7 kts 340°
2026-05-04 20:06 50.04805 8.59384 345 ft 8 kts 340°
2026-05-04 20:07 50.04865 8.59362 351 ft 9 kts
2026-05-04 20:07 50.04929 8.59370 347 ft 9 kts 353°
2026-05-04 20:07 50.04991 8.59342 352 ft 8 kts 339°
2026-05-04 20:07 50.05043 8.59309 351 ft 9 kts 330°
2026-05-04 20:08 50.05075 8.59232 350 ft 9 kts 274°
2026-05-04 20:08 50.05069 8.59179 349 ft 1 kts 254°
2026-05-04 20:08 50.04980 8.59154 345 ft 0 kts 158°
2026-05-04 20:08 50.04977 8.59156 345 ft 1 kts 158°
2026-05-04 20:09 50.04974 8.59158 345 ft 0 kts 158°